Regional Weather Roundup
Issued by NWS

Home | Current Version | Previous Version | Graphics & Text | Print | Product List | Glossary On
Versions: 1 2 3 4 5 6 7 8 9 10 11 12 13 14 15 16 17 18 19 20 21 22 23 24 25 26 27 28 29 30 31 32 33 34 35 36 37 38 39 40 41 42 43 44 45 46 47 48 49 50
916
ASUS43 KDMX 071603
RWRIA

WEATHER ROUNDUP FOR IOWA
NATIONAL WEATHER SERVICE DES MOINES IA
1000 AM CST SUN FEB 07 2016

NOTE: "FAIR" INDICATES FEW OR NO CLOUDS BELOW 12,000 FEET WITH NO
SIGNIFICANT WEATHER AND/OR OBSTRUCTIONS TO VISIBILITY.

* - THESE STATIONS ARE NOT NWS STATIONS...THUS NOT UNDER NWS
QUALITY CONTROL.  THEY ALSO DO NOT REPORT WEATHER SUCH
AS PRECIPITATION OR FOG.

IAZ001>003-012>014-020>022-031>034-043>046-071700-
   NORTHWEST IOWA

CITY           SKY/WX    TMP DP  RH WIND       PRES   REMARKS
CARROLL *      CLOUDY    37  28  70 W20G32    29.89S WCI  27
CHEROKEE *     CLOUDY    36  30  80 W14       29.88S WCI  27
DENISON *      PTSUNNY   36  27  69 W15G21    29.91S WCI  26
LE MARS *      SUNNY     37  32  81 W12G18    29.91S WCI  30
ORANGE CITY *  SUNNY     36  30  80 W22       29.86S WCI  24
SHELDON *      MOSUNNY   34  28  80 W17       29.83S WCI  23
SIOUX CITY     PTSUNNY   41  28  60 NW18      29.93S
SPENCER        CLOUDY    35  27  72 W17       29.82S WCI  25
STORM LAKE *   SUNNY     36  30  80 W22       29.87S WCI  24
$$

IAZ055>058-069>071-079>083-090>094-071700-
   SOUTHWEST IOWA

CITY           SKY/WX    TMP DP  RH WIND       PRES   REMARKS
ATLANTIC *     SUNNY     37  25  60 W16       29.95R WCI  28
AUDUBON *      MOSUNNY   37  28  70 W12G17    29.93R WCI  30
CLARINDA *     SUNNY     41  28  60 W14       30.01S
COUNCIL BLFS * SUNNY     39  25  56 W16G24    29.99R WCI  30
CRESTON *      SUNNY     39  28  65 W15       29.96R WCI  31
HARLAN  *      MOSUNNY   37  27  65 W18G24    29.98R WCI  27
LAMONI         SUNNY     41  30  65 W18       29.95R
RED OAK *      SUNNY     39  28  65 W8G15     29.99S WCI  34
SHENANDOAH *   SUNNY     41  32  70 W8        30.02R
$$

IAZ047>049-059>061-072>074-084-071700-
   CENTRAL IOWA

CITY           SKY/WX    TMP DP  RH WIND       PRES   REMARKS
AMES           MOSUNNY   38  26  62 NW20G26   29.86S WCI  28
ANKENY *       SUNNY     39  28  65 NW18      29.89R WCI  30
BOONE *        PTSUNNY   37  27  65 W17G29    29.86R WCI  28
CHARITON *     SUNNY     41  28  60 W14       29.92R
DES MOINES     MOSUNNY   41  25  53 NW21G30   29.90R
GRINNELL*      SUNNY     37  29  72 W16G22    29.86R WCI  28
KNOXVILLE *    SUNNY     39  28  65 W14       29.88R WCI  31
MARSHALLTOWN   SUNNY     37  26  64 W17       29.84R WCI  27
NEWTON *       MIX PCPN  37  30  75 NW18      29.86S WCI  27
PELLA *        SUNNY     41  28  60 W16G22    29.89R
$$

IAZ004>006-015-016-023>025-035-036-071700-
   NORTH CENTRAL IOWA

CITY           SKY/WX    TMP DP  RH WIND       PRES   REMARKS
ALGONA *       MOSUNNY   36  28  75 W18       29.81R WCI  25
CLARION *      MOSUNNY   34  28  80 W18       29.82S WCI  23
ESTHERVILLE    CLOUDY    35  27  72 W23       29.78S WCI  23
FORT DODGE *   CLOUDY    36  27  69 W13       29.85S WCI  27
MASON CITY     CLOUDY    34  26  72 W21       29.78R WCI  22
FOREST CITY *  SUNNY     34  27  75 W16       29.77F WCI  23
WEBSTER CITY * MOSUNNY   32  27  80 W14       29.83S WCI  22
IOWA FALLS *     N/A     35  28  75 W21       29.83R WCI  23
$$

IAZ007>011-017>019-026>030-037>042-050>054-066-071700-
   NORTHEAST IOWA

CITY           SKY/WX    TMP DP  RH WIND       PRES   REMARKS
CEDAR RAPIDS   SUNNY     39  31  72 W16       29.80S WCI  30
CHARLES CITY * SUNNY     34  28  80 W16G22    29.77R WCI  23
CLINTON *      CLOUDY    38  31  76 W15       29.79F WCI  29
DECORAH *      MOSUNNY   36  27  69 W10G18    29.72S WCI  28
DUBUQUE        SUNNY     36  29  75 W16       29.75F WCI  26
MONTICELLO *   SUNNY     37  30  75 W9        29.78S WCI  31
OELWEIN *      MOSUNNY   34  28  80 W17       29.78R WCI  23
WATERLOO       SUNNY     35  26  69 W15       29.80R WCI  25
$$

IAZ064-065-067-068-078-071700-
   EAST CENTRAL IOWA

CITY           SKY/WX    TMP DP  RH WIND       PRES   REMARKS
DAVENPORT      MOSUNNY   36  29  75 W16       29.81S WCI  26
IOWA CITY      SUNNY     39  30  70 W13       29.84F WCI  31
MT. PLEASANT * MOSUNNY   41  32  70 W14       29.86S
MUSCATINE *    MOSUNNY   39  30  70 W14       29.84S WCI  31
QUAD CITIES    CLOUDY    40  29  64 W15       29.81S WCI  32
$$

IAZ062-063-075>077-085>089-095>099-071700-
   SOUTHEAST IOWA

CITY           SKY/WX    TMP DP  RH WIND       PRES   REMARKS
BURLINGTON     CLOUDY    40  30  67 W13       29.85S WCI  32
FAIRFIELD *    SUNNY     39  28  65 W15       29.86S WCI  31
FORT MADISON * SUNNY     39  30  70 W13       29.87S WCI  32
KEOKUK *       MOSUNNY   41  30  65 W12G22    29.87S
OSKALOOSA *      N/A     39  30  70 W16       29.87S WCI  30
OTTUMWA        MOSUNNY   40  30  67 W17G23    29.88R WCI  31
WASHINGTON *   CLOUDY    39  32  75 W16G22    29.86R WCI  30
$$

ABBREVIATIONS USED IN REMARKS
   TC - TEMPERATURES IN CELSIUS
  WCI - WIND CHILL INDEX
   HX - HEAT INDEX
  VSB - VISIBILITY
$$





USA.gov is the U.S. government's official web portal to all federal, state and local government web resources and services.